Tracking 29892 objects as of 21-Nov-2024
HD Live streaming from Space Station
objects crossing your sky now

DELTA 1 R/B

Track DELTA 1 R/B now!
10-day predictions


NORAD ID: 2758
Int'l Code: 1967-036B
Perigee: 1,361.6 km
Apogee: 1,425.5 km
Inclination: 101.9 °
Period: 113.5 minutes
Semi major axis: 7764 km
RCS: 0.5188 m2 (medium)
Launch date: April 20, 1967
Source: United States (US)
Launch site: AIR FORCE WESTERN TEST RANGE (AFWTR)

Note: This is a ROCKET BODY
Your satellite tracking list
Your tracking list is empty




NASA's NSSDC Master Catalog

Two Line Element Set (TLE):
1 02758U 67036B   24325.11098936 -.00000005  00000-0  21798-3 0  9993
2 02758 101.9011 205.2167 0041169  22.2222 338.0631 12.68901512666471
Source of the keplerian elements: AFSPC